Flag for China Weather past 2 weeks in Tianjin, Tianjin Municipality, China

Now
82 °F

Passing clouds.


Feels Like: 83 °F
Forecast: 75 / 89 °F
Wind: 10 mph from Southwest

Location: Tianjin / Zhangguizhu

Current Time: Jul 23, 2014 at 2:42:52 PM

Latest Report: Jul 23, 2014 at 2:00 PM


Visibility: N/A

Pressure: 29.62 "Hg

Humidity: 51%

Dew point: 63 °F

Location of TianjinLocation

Historic Weather in Tianjin — Graph

°F

Tianjin temperature yesterday

Maximum temperature yesterday: 84 °F (at 10:30 AM)
Minimum temperature yesterday: 79 °F (at 5:30 AM)
Average temperature yesterday: 82 °F

Past Weeks' High & Low Weather Summary

 TemperatureHumidityPressure
High100 °F (Jul 14, 3:30 PM)94% (Jul 17, 2:00 AM)29.83 "Hg (Jul 17, 2:00 AM)
Low70 °F (Jul 17, 3:30 AM)16% (Jul 9, 4:00 PM)29.47 "Hg (Jul 10, 5:00 PM)
Average85 °F55%29.64 "Hg
* Reported Jul 8 1:00 PM — Jul 23 1:30 PM, Tianjin, Weather by CustomWeather, © 2014

Note: Actual official high and low records may vary slightly from our data, if they occured in-between our weather recording intervals... More about our weather records

Advertising

Tianjin weather history for previous 24 hours

 ConditionsComfort  
Time TempWeatherWind HumidityBarometerVisibility
1:30 PM
Jul 23
82 °FSunny.10 mph51%29.65 "Hg10 mi
12:30 PM82 °FClear.10 mph58%29.65 "Hg5 mi
12:00 PM84 °FPassing clouds.8 mph51%29.65 "HgN/A
11:30 AM84 °FSunny.8 mph45%29.65 "Hg10 mi
11:00 AM86 °FPassing clouds.10 mph43%29.68 "HgN/A
10:30 AM82 °FPassing clouds.6 mph51%29.68 "HgN/A
10:00 AM81 °FSunny.6 mph54%29.68 "Hg10 mi
9:30 AM81 °FPassing clouds.6 mph51%29.68 "HgN/A
9:00 AM81 °FPassing clouds.6 mph51%29.68 "HgN/A
8:30 AM81 °FSunny.6 mph54%29.68 "Hg10 mi
8:00 AM79 °FSunny.6 mph58%29.68 "Hg10 mi
7:00 AM79 °FSunny.6 mph58%29.65 "Hg10 mi
1:00 AM81 °FClear.3 mph48%29.71 "Hg10 mi
12:30 AM81 °FClear.6 mph48%29.71 "Hg10 mi
12:00 AM81 °FPassing clouds.6 mph48%29.71 "HgN/A
11:30 PM
Jul 22
81 °FClear.6 mph51%29.71 "Hg10 mi
11:00 PM81 °FClear.8 mph51%29.71 "Hg10 mi
10:30 PM81 °FClear.6 mph51%29.71 "Hg10 mi
10:00 PM81 °FClear.6 mph54%29.71 "Hg10 mi
9:30 PM81 °FClear.8 mph58%29.71 "Hg10 mi
9:00 PM82 °FClear.3 mph48%29.71 "Hg10 mi
8:30 PM82 °FClear.1 mph51%29.71 "Hg10 mi
8:00 PM82 °FClear.3 mph48%29.71 "Hg10 mi
7:30 PM81 °FLight rain. Clear.3 mph54%29.71 "HgN/A
7:00 PM81 °FSunny.6 mph51%29.71 "Hg10 mi
6:30 PM82 °FSunny.8 mph48%29.71 "Hg10 mi
6:00 PM82 °FLight rain. Clear.6 mph51%29.68 "HgN/A
5:30 PM82 °FSunny.8 mph51%29.68 "Hg10 mi
5:00 PM82 °FSunny.6 mph55%29.68 "Hg10 mi
4:30 PM82 °FSunny.10 mph55%29.71 "Hg10 mi
4:00 PM84 °FSunny.10 mph51%29.68 "Hg10 mi
3:30 PM84 °FSunny.8 mph48%29.71 "Hg10 mi
3:00 PM84 °FSunny.8 mph51%29.71 "Hg10 mi
2:30 PM84 °FSunny.6 mph55%29.71 "Hg10 mi
2:00 PM84 °FSunny.6 mph55%29.71 "Hg10 mi
Weather by CustomWeather, © 2014

See weather overviewHow to use our weather pages